Grand Forks, ND

1:35 AM CDT on May 23, 2017 (GMT -0500)
Grand Forks International

Weather History for KGFK - February, 2012

Change the Weather History Date:

Monday, February 6, 2012

  Actual Average Record
Temperature  
Mean Temperature 22 °F 9 °F  
Max Temperature 35 °F 19 °F 47 °F (2002)
Min Temperature 9 °F -1 °F -34 °F (1967)
Degree Days  
Heating Degree Days 43 56  
Month to date heating degree days 242 339  
Since 1 July heating degree days 4753 6005  
Cooling Degree Days 0 0  
Month to date cooling degree days 0 0  
Year to date cooling degree days 0 0  
Moisture  
Dew Point 19 °F    
Average Humidity 81    
Maximum Humidity 88    
Minimum Humidity 73    
Precipitation  
Precipitation T in 0.02 in 0.25 in (1946)
Month to date precipitation T 0.09  
Year to date precipitation 0.38 0.64  
Snow  
Snow 0.00 in 0.20 in 3.00 in (1946)
Month to date snowfall 0.0 1.4  
Since 1 July snowfall 10.6 32.0  
Snow Depth 1.00 in    
Sea Level Pressure  
Sea Level Pressure 30.31 in    
Wind  
Wind Speed 16 mph (NNW)    
Max Wind Speed 30 mph    
Max Gust Speed 39 mph    
Visibility 10 miles    
Events      
T = Trace of Precipitation, MM = Missing Value Source: NWS Daily Summary

Daily Weather History Graph

Daily Weather History Graph

Search for Another Location

Airport or City:

Trip Planner

Search our weather history database for the weather conditions in past years. The results will help you decide how hot, cold, wet, or windy it might be!

Date:

Astronomy

Feb. 06, 2012 Rise Set
Actual Time 7:49 AM CST 5:36 PM CST
Civil Twilight 7:17 AM CST 6:09 PM CST
Nautical Twilight 6:40 AM CST 6:45 PM CST
Astronomical Twilight 6:04 AM CST 7:22 PM CST
Moon 4:40 PM CST (2/6) 6:44 AM CST (2/6)
Length of Visible Light 10h 51m
Length of Day
9h 46m
Waxing Gibbous, 98% of the Moon is Illuminated
Feb 6
Waxing Gibbous
Feb 7
Full
Feb 14
Last Quarter
Feb 21
New
Feb 29
First Quarter

Hourly Weather History & Observations

Time (CST) Temp. Windchill Dew Point Humidity Pressure Visibility Wind Dir Wind Speed Gust Speed Precip Events Conditions
12:53 AM 32.0 °F 26.4 °F 27.0 °F 82% 30.05 in 10.0 mi WNW 5.8 mph - N/A   Clear
1:53 AM 30.0 °F 24.1 °F 25.0 °F 82% 30.06 in 10.0 mi West 5.8 mph - N/A   Clear
2:53 AM 28.9 °F 20.4 °F 24.1 °F 82% 30.07 in 10.0 mi WNW 9.2 mph - N/A   Clear
3:53 AM 28.0 °F 19.3 °F 23.0 °F 81% 30.08 in 10.0 mi NW 9.2 mph - N/A   Clear
4:53 AM 26.1 °F 17.6 °F 21.9 °F 84% 30.09 in 10.0 mi NW 8.1 mph - N/A   Clear
5:53 AM 23.0 °F 13.9 °F 19.9 °F 88% 30.12 in 10.0 mi NNW 8.1 mph - N/A   Clear
6:53 AM 24.1 °F 13.1 °F 19.9 °F 84% 30.15 in 10.0 mi North 11.5 mph - N/A   Clear
7:53 AM 23.0 °F 12.4 °F 19.9 °F 88% 30.18 in 10.0 mi NNW 10.4 mph - N/A   Clear
8:53 AM 24.1 °F 13.1 °F 21.0 °F 88% 30.21 in 10.0 mi North 11.5 mph - N/A   Partly Cloudy
9:09 AM 24.8 °F 12.4 °F 21.2 °F 86% 30.18 in 10.0 mi North 15.0 mph - N/A   Mostly Cloudy
9:53 AM 28.0 °F 14.6 °F 25.0 °F 88% 30.24 in 10.0 mi North 20.7 mph 26.5 mph N/A   Overcast
10:53 AM 30.0 °F 16.3 °F 25.0 °F 82% 30.26 in 10.0 mi North 24.2 mph 33.4 mph N/A   Overcast
11:09 AM 30.2 °F 16.5 °F 24.8 °F 80% 30.23 in 10.0 mi North 24.2 mph 34.5 mph N/A   Overcast
11:43 AM 28.4 °F 14.7 °F 24.8 °F 86% 30.24 in 10.0 mi North 21.9 mph 28.8 mph N/A   Overcast
11:53 AM 30.0 °F 15.4 °F 24.1 °F 79% 30.29 in 10.0 mi North 27.6 mph 35.7 mph N/A   Overcast
12:53 PM 28.9 °F 15.8 °F 24.1 °F 82% 30.31 in 10.0 mi North 20.7 mph 27.6 mph N/A   Overcast
1:53 PM 27.0 °F 12.2 °F 21.9 °F 81% 30.34 in 10.0 mi North 24.2 mph 32.2 mph N/A   Overcast
2:53 PM 26.1 °F 11.3 °F 21.0 °F 81% 30.36 in 10.0 mi North 23.0 mph 28.8 mph N/A   Overcast
3:19 PM 24.8 °F 9.0 °F 19.4 °F 80% 30.34 in 10.0 mi North 25.3 mph 31.1 mph N/A   Overcast
3:53 PM 23.0 °F 7.2 °F 18.0 °F 81% 30.40 in 10.0 mi North 23.0 mph 32.2 mph N/A   Overcast
4:53 PM 21.0 °F 4.6 °F 16.0 °F 81% 30.43 in 10.0 mi North 23.0 mph 29.9 mph N/A   Mostly Cloudy
5:14 PM 21.2 °F 5.2 °F 15.8 °F 80% 30.39 in 10.0 mi North 21.9 mph 32.2 mph N/A   Mostly Cloudy
5:53 PM 19.9 °F 5.2 °F 14.0 °F 78% 30.46 in 10.0 mi North 17.3 mph 26.5 mph N/A   Mostly Cloudy
6:12 PM 19.4 °F 4.1 °F 12.2 °F 74% 30.42 in 10.0 mi North 18.4 mph 26.5 mph N/A   Scattered Clouds
6:53 PM 17.1 °F -0.3 °F 12.0 °F 81% 30.49 in 10.0 mi North 21.9 mph 33.4 mph N/A   Partly Cloudy
7:53 PM 16.0 °F -0.4 °F 10.0 °F 77% 30.52 in 10.0 mi North 18.4 mph 26.5 mph N/A   Partly Cloudy
8:53 PM 15.1 °F -2.0 °F 9.0 °F 77% 30.56 in 10.0 mi North 19.6 mph 26.5 mph N/A   Clear
9:53 PM 12.9 °F -3.4 °F 8.1 °F 81% 30.59 in 10.0 mi North 16.1 mph 24.2 mph N/A   Clear
10:53 PM 12.0 °F -4.0 °F 6.1 °F 77% 30.62 in 10.0 mi North 15.0 mph - N/A   Clear
11:53 PM 10.0 °F -7.6 °F 5.0 °F 80% 30.64 in 10.0 mi North 17.3 mph - N/A   Clear